DLH2471 EDDF-LROP

Flight info

Callsign DLH2471
Flight time N/A
Altitude 36000
Route SULUS4D/07C SULUS Z650 VEMUT DCT ETVIS DCT BUDEX DCT TEGRI DCT LAMIT DCT TOSVI TOSVI2U
Aircraft A359/H-SDE2E3GHIJ3J4J5LM1ORWXY/LB1D1

Departure

Time 2026-05-01 14:42
Airport Frankfurt Main Airport (EDDF)

Arrival

Time N/A
Airport Bucharest Henri Coandă International Airport (LROP)
Time Latitude Longitude Altitude Speed Heading
2026-05-01 14:13 50.04701 8.56172 352 ft 0 kts 341°
2026-05-01 14:30 50.04681 8.56186 364 ft 0 kts 329°
2026-05-01 14:30 50.04681 8.56185 362 ft 0 kts 329°
2026-05-01 14:30 50.04678 8.56189 362 ft 2 kts 328°
2026-05-01 14:31 50.04659 8.56211 363 ft 1 kts 311°
2026-05-01 14:31 50.04651 8.56225 364 ft 1 kts 302°
2026-05-01 14:31 50.04645 8.56240 364 ft 1 kts 292°
2026-05-01 14:31 50.04641 8.56257 364 ft 1 kts 282°
2026-05-01 14:32 50.04639 8.56274 364 ft 1 kts 273°
2026-05-01 14:32 50.04638 8.56293 364 ft 1 kts 265°
2026-05-01 14:32 50.04639 8.56311 364 ft 1 kts 258°
2026-05-01 14:32 50.04641 8.56329 364 ft 1 kts 253°
2026-05-01 14:33 50.04643 8.56339 364 ft 0 kts 250°
2026-05-01 14:33 50.04644 8.56342 364 ft 0 kts 252°
2026-05-01 14:33 50.04644 8.56341 362 ft 0 kts 252°
2026-05-01 14:36 50.04644 8.56340 362 ft 1 kts 252°
2026-05-01 14:36 50.04633 8.56292 362 ft 9 kts 250°
2026-05-01 14:37 50.04602 8.56164 356 ft 16 kts 249°
2026-05-01 14:37 50.04565 8.56022 360 ft 12 kts 243°
2026-05-01 14:37 50.04501 8.55947 359 ft 12 kts 201°
2026-05-01 14:37 50.04414 8.55912 356 ft 13 kts 186°
2026-05-01 14:38 50.04323 8.55941 358 ft 14 kts 163°
2026-05-01 14:38 50.04242 8.56019 362 ft 14 kts 150°
2026-05-01 14:38 50.04150 8.56083 356 ft 16 kts 158°
2026-05-01 14:38 50.04076 8.56053 362 ft 9 kts 239°
2026-05-01 14:39 50.04054 8.55966 355 ft 10 kts 246°
2026-05-01 14:39 50.04023 8.55842 360 ft 14 kts 249°
2026-05-01 14:39 50.03986 8.55682 357 ft 17 kts 250°
2026-05-01 14:39 50.03939 8.55489 357 ft 20 kts 250°
2026-05-01 14:40 50.03886 8.55265 359 ft 23 kts 249°
2026-05-01 14:40 50.03826 8.55013 356 ft 26 kts 250°
2026-05-01 14:40 50.03759 8.54736 360 ft 29 kts 249°
2026-05-01 14:40 50.03687 8.54434 360 ft 31 kts 249°
2026-05-01 14:41 50.03635 8.54326 360 ft 7 kts 192°
2026-05-01 14:41 50.03595 8.54329 359 ft 4 kts 159°
2026-05-01 14:41 50.03547 8.54350 358 ft 11 kts 163°
2026-05-01 14:41 50.03501 8.54440 358 ft 12 kts 89°
2026-05-01 14:42 50.03533 8.54601 359 ft 23 kts 69°
2026-05-01 14:42 50.03682 8.55230 360 ft 100 kts 70°
2026-05-01 14:42 50.04000 8.56561 370 ft 162 kts 72°
2026-05-01 14:42 50.04420 8.58283 1001 ft 173 kts 71°
2026-05-01 14:43 50.04852 8.60099 1908 ft 188 kts 72°
2026-05-01 14:43 50.05309 8.62091 2831 ft 198 kts 73°
2026-05-01 14:43 50.05542 8.64196 3580 ft 201 kts 100°
2026-05-01 14:43 50.05470 8.66399 4318 ft 207 kts 92°
2026-05-01 14:44 50.05627 8.68672 5109 ft 221 kts 74°
2026-05-01 14:44 50.07364 8.72965 6428 ft 249 kts 76°
2026-05-01 14:44 50.07339 8.75687 7001 ft 260 kts 111°
2026-05-01 14:45 50.06699 8.78361 7918 ft 266 kts 109°
2026-05-01 14:45 50.05877 8.84087 10055 ft 277 kts 99°
2026-05-01 14:45 50.05789 8.87179 10756 ft 297 kts 92°
2026-05-01 14:46 50.05832 8.90523 11237 ft 322 kts 90°
2026-05-01 14:46 50.05976 8.97827 12684 ft 345 kts 90°
2026-05-01 14:46 50.06043 9.01589 13631 ft 350 kts 90°
2026-05-01 14:47 50.06107 9.05400 14512 ft 354 kts 90°
2026-05-01 14:47 50.06169 9.09205 15324 ft 360 kts 90°
2026-05-01 14:47 50.06230 9.13128 16141 ft 365 kts 90°
2026-05-01 14:48 50.06355 9.21135 17794 ft 375 kts 89°
2026-05-01 14:48 50.06412 9.25224 18616 ft 381 kts 90°
2026-05-01 14:48 50.06518 9.33536 20199 ft 388 kts 89°
2026-05-01 14:49 50.06624 9.42020 21817 ft 396 kts 89°
2026-05-01 14:49 50.06729 9.50695 23371 ft 405 kts 89°
2026-05-01 14:50 50.06795 9.56544 24286 ft 411 kts 89°
2026-05-01 14:50 50.06922 9.68630 25974 ft 422 kts 89°
2026-05-01 14:51 50.06969 9.73229 26574 ft 427 kts 89°
2026-05-01 14:51 50.07054 9.82530 27770 ft 437 kts 89°
2026-05-01 14:52 50.07132 9.92067 28939 ft 446 kts 89°
2026-05-01 14:52 50.07168 9.96929 29521 ft 450 kts 89°
2026-05-01 14:52 50.07236 10.06756 30582 ft 458 kts 88°
2026-05-01 14:53 50.07268 10.11747 31028 ft 462 kts 88°
2026-05-01 14:53 50.07298 10.16770 31482 ft 466 kts 88°
2026-05-01 14:53 50.07327 10.21826 31899 ft 469 kts 88°
2026-05-01 14:53 50.07345 10.25218 32157 ft 472 kts 88°
2026-05-01 14:54 50.07376 10.30358 32544 ft 476 kts 87°
2026-05-01 14:54 50.07411 10.35528 32936 ft 479 kts 88°
2026-05-01 14:54 50.07439 10.42429 33428 ft 484 kts 88°
2026-05-01 14:54 50.07452 10.45975 33664 ft 486 kts 88°
2026-05-01 14:55 50.07470 10.51245 34116 ft 486 kts 88°
2026-05-01 14:55 50.07487 10.56515 34633 ft 485 kts 88°
2026-05-01 14:55 50.07501 10.61765 35080 ft 484 kts 88°
2026-05-01 14:55 50.07510 10.67000 35516 ft 483 kts 88°
2026-05-01 14:56 50.07314 10.72221 35944 ft 484 kts 96°
2026-05-01 14:56 50.06611 10.77357 36279 ft 487 kts 104°
2026-05-01 14:56 50.05654 10.82379 36353 ft 494 kts 106°
2026-05-01 14:57 50.03475 10.92572 36342 ft 492 kts 107°
2026-05-01 14:57 50.00198 11.07556 36344 ft 486 kts 107°
2026-05-01 14:58 49.98054 11.17527 36348 ft 486 kts 107°
2026-05-01 14:58 49.95920 11.27496 36357 ft 486 kts 107°
2026-05-01 14:59 49.93809 11.37455 36366 ft 486 kts 107°
2026-05-01 14:59 49.91755 11.47449 36358 ft 485 kts 104°
2026-05-01 15:00 49.89068 11.62500 36386 ft 484 kts 103°
2026-05-01 15:01 49.87734 11.72701 36396 ft 482 kts 96°
2026-05-01 15:01 49.86791 11.82997 36400 ft 482 kts 96°
2026-05-01 15:02 49.85888 11.93284 36405 ft 481 kts 96°
2026-05-01 15:02 49.84978 12.03562 36406 ft 481 kts 96°
2026-05-01 15:03 49.84052 12.13845 36400 ft 481 kts 96°
2026-05-01 15:03 49.83112 12.24110 36398 ft 481 kts 96°
2026-05-01 15:04 49.82171 12.34374 36392 ft 481 kts 96°
2026-05-01 15:04 49.80825 12.44513 36377 ft 484 kts 107°
2026-05-01 15:05 49.77768 12.53815 36373 ft 487 kts 120°
2026-05-01 15:05 49.73980 12.62537 36375 ft 488 kts 122°
2026-05-01 15:06 49.70108 12.71159 36375 ft 488 kts 122°
2026-05-01 15:06 49.66276 12.79734 36374 ft 488 kts 122°
2026-05-01 15:07 49.62425 12.88356 36372 ft 488 kts 122°
2026-05-01 15:07 49.58529 12.96925 36373 ft 488 kts 122°
2026-05-01 15:08 49.54621 13.05483 36372 ft 488 kts 122°
2026-05-01 15:08 49.50711 13.14038 36375 ft 488 kts 122°
2026-05-01 15:09 49.46803 13.22575 36374 ft 488 kts 122°
2026-05-01 15:09 49.42885 13.31110 36374 ft 488 kts 122°
2026-05-01 15:10 49.38962 13.39625 36370 ft 488 kts 122°
2026-05-01 15:10 49.33054 13.52398 36372 ft 488 kts 122°
2026-05-01 15:11 49.27138 13.65126 36376 ft 488 kts 122°
2026-05-01 15:12 49.23187 13.73596 36373 ft 488 kts 122°
2026-05-01 15:12 49.17253 13.86264 36372 ft 488 kts 122°
2026-05-01 15:14 49.07339 14.07297 36382 ft 488 kts 122°
2026-05-01 15:14 49.01348 14.19929 36364 ft 488 kts 122°
2026-05-01 15:15 48.93693 14.36920 36367 ft 483 kts 115°
2026-05-01 15:16 48.87354 14.54900 36359 ft 482 kts 114°
2026-05-01 15:18 48.79467 14.77338 36361 ft 481 kts 114°
2026-05-01 15:19 48.73091 14.95268 36354 ft 481 kts 114°
2026-05-01 15:19 48.68284 15.08706 36352 ft 481 kts 114°
2026-05-01 15:20 48.63486 15.22054 36353 ft 481 kts 114°
2026-05-01 15:21 48.60284 15.30924 36353 ft 481 kts 114°
2026-05-01 15:21 48.57071 15.39792 36343 ft 481 kts 114°
2026-05-01 15:22 48.52215 15.53141 36341 ft 481 kts 114°
2026-05-01 15:22 48.48989 15.61968 36342 ft 481 kts 114°
2026-05-01 15:23 48.45753 15.70798 36342 ft 481 kts 114°
2026-05-01 15:23 48.42512 15.79609 36340 ft 481 kts 114°
2026-05-01 15:24 48.39783 15.87003 36341 ft 481 kts 114°
2026-05-01 15:24 48.36529 15.95796 36338 ft 481 kts 114°
2026-05-01 15:25 48.33267 16.04581 36341 ft 481 kts 114°
2026-05-01 15:25 48.29974 16.13419 36344 ft 481 kts 114°
2026-05-01 15:26 48.26703 16.22168 36335 ft 481 kts 114°
2026-05-01 15:26 48.24031 16.29293 36330 ft 480 kts 114°
2026-05-01 15:27 48.20762 16.37985 36312 ft 480 kts 114°
2026-05-01 15:28 48.15791 16.51149 36321 ft 480 kts 114°
2026-05-01 15:28 48.12509 16.59808 36323 ft 480 kts 114°
2026-05-01 15:29 48.07532 16.72882 36321 ft 480 kts 114°
2026-05-01 15:30 48.00901 16.90197 36327 ft 480 kts 114°
2026-05-01 15:31 47.90868 17.16189 36323 ft 480 kts 114°
2026-05-01 15:32 47.84165 17.33415 36318 ft 480 kts 114°
2026-05-01 15:34 47.74057 17.59180 36320 ft 480 kts 114°